User: anonymous   Login
Location: Unspecified
(0.0000°N, 0.0000°E)
Time: 21:45:45
(UTC+00:00)
Language:

DICE 2 - Orbit

View from above orbital plane
View from above orbital plane
View from above satellite
View from above satellite

Ground track
Ground track

The orbit data is extracted from the following two-line orbital elements,

1 37852U 11061C   18048.92576881 +.00001734 +00000-0 +97026-4 0  9994
2 37852 101.7290 053.1759 0168880 070.9493 290.9925 15.04970906343333
Epoch (UTC): 17 February 2018 22:13:06
Eccentricity: 0.0168880
inclination: 101.7290°
perigee height: 434 km
apogee height: 668 km
right ascension of ascending node: 53.1759°
argument of perigee: 70.9493°
revolutions per day: 15.04970906
mean anomaly at epoch: 290.9925°
orbit number at epoch: 34333

The dashed part of the orbit path shows where the satellite is in the earth's shadow,  

DLR